Regional Weather Roundup
Issued by NWS Green Bay, WI

Current Version | Previous Version | Text Only | Print | Product List | Glossary On
Versions: 1 2 3 4 5 6 7 8 9 10 11 12 13 14 15 16 17 18 19 20 21 22 23 24 25 26 27 28 29 30 31 32 33 34 35 36 37 38 39 40 41 42 43 44 45 46 47 48 49 50
000
ASUS43 KGRB 261701
RWRGRB

NORTH-CENTRAL AND NORTHEAST WISCONSIN REGIONAL WEATHER ROUNDUP
NATIONAL WEATHER SERVICE GREEN BAY WI
1200 PM CDT TUE SEP 26 2017

WIZ005-009-010>012-018-019-261800-
NORTH CENTRAL WISCONSIN

CITY           SKY/WX    TMP DP  RH WIND       PRES   REMARKS
IRONWOOD       CLOUDY    60  59  96 W5        29.90S
MANITOWISH WTR NOT AVBL
ARBOR VITAE    NOT AVBL
EAGLE RIVER    NOT AVBL
LAND O LAKES   NOT AVBL
RHINELANDER    CLOUDY    68  65  90 SW9       29.93F
PHILLIPS       CLOUDY    64  64 100 SW6       29.91F
ANTIGO         NOT AVBL
TOMAHAWK       NOT AVBL
MERRILL        NOT AVBL
$$

WIZ013-073-261800-
NORTHEAST WISCONSIN

CITY           SKY/WX    TMP DP  RH WIND       PRES   REMARKS
IRON MOUNTAIN  CLOUDY    70  64  81 S8        29.91S
MARINETTE      MOSUNNY   72  66  81 W3        29.92S
$$

WIZ017-030-035>037-045-261800-
CENTRAL WISCONSIN

CITY           SKY/WX    TMP DP  RH WIND       PRES   REMARKS
MEDFORD        NOT AVBL
WAUSAU         LGT RAIN  69  65  86 SW8       29.92S
MOSINEE        NOT AVBL
MARSHFIELD     CLOUDY    70  64  81 W8        29.93F
WISC RAPIDS    CLOUDY    71  67  87 W7        29.95S
STEVENS POINT  NOT AVBL
WAUPACA        NOT AVBL
SHAWANO        NOT AVBL
CLINTONVILLE   NOT AVBL
WAUTOMA        CLOUDY    72  67  84 SW5       29.94S
$$

WIZ038-039-048-051-261800-
FOX VALLEY

CITY           SKY/WX    TMP DP  RH WIND       PRES   REMARKS
NWS GREEN BAY  PTSUNNY   77  68  73 SW5       29.92F
APPLETON       PTSUNNY   77  61  57 W5        29.92F
OSHKOSH        CLOUDY    76  65  68 SW7       29.93S
FOND DU LAC    CLOUDY    77  63  61 SW7       29.93S
$$

WIZ022-050-052-261800-
EAST CENTRAL WISCONSIN

CITY           SKY/WX    TMP DP  RH WIND       PRES   REMARKS
EPHRAIM        NOT AVBL
WASHINGTON ISL NOT AVBL
STURGEON BAY   CLOUDY    73  68  84 NW5       29.93R
MANITOWOC      CLOUDY    79  64  60 SW6       29.92S
SHEBOYGAN      CLOUDY    82  65  56 SW8       29.92S
$$

LMZ563-521-522-541>543-261800-
LAKESHORE

STATION/POSITION TIME  TEMP    WIND        PRES    VSBY  WAVE
                       AIR SEA DIR/SP/G                  HT/PER
                 (UTC) (F)     (DEG/KT/KT) (MB)    (MI)  (FT/S)
SHEBOYGAN LKSHOR 1600   72     180/ 12/ 13 1012.6S
KEWAUNEE LKSHORE 1630   73     140/  5/  6 1012.3S
NORTHPORT PIER   1640   70     330/  2/  4 1012.9R
N MID LAKE BUOY  1550   69 67  200/ 10/ 12 1013.2R         1/ 3
S GREEN BAY BUOY 1630   69 70  260/  8/  8 1013.1R
SISTER BAY LKSHO 1619   70        CALM       N/A
MENOMINEE LKSHOR 1630   68     120/  3/  4 1012.8R
$$




USA.gov is the U.S. government's official web portal to all federal, state and local government web resources and services.